Flag for Russia Weather past 2 weeks in Kaliningrad, Russia

Now
21 °F

Partly cloudy.


Feels Like: 12 °F
Forecast: 15 / 26 °F
Wind: 8 mph from Southwest

Location: Kaliningrad/Khrabrovo Airport

Current Time: Dec 27, 2014 at 7:23:31 AM

Latest Report: Dec 27, 2014 at 6:30 AM


Visibility: 4 mi

Pressure: 30.09 "Hg

Humidity: 86%

Dew point: 18 °F

Location of KaliningradLocation

Historic Weather in Kaliningrad — Graph

°F

Kaliningrad temperature yesterday

Maximum temperature yesterday: 28 °F (at 12:00 PM)
Minimum temperature yesterday: 16 °F (at 8:00 AM)
Average temperature yesterday: 22 °F

Past Weeks' High & Low Weather Summary

 TemperatureHumidityPressure
High50 °F (Dec 19, 6:00 AM)100% (Dec 15, 1:00 AM)30.27 "Hg (Dec 15, 1:00 AM)
Low16 °F (Dec 26, 8:00 AM)60% (Dec 25, 8:00 AM)29.24 "Hg (Dec 13, 1:30 AM)
Average38 °F82%29.70 "Hg
* Reported Dec 12 6:00 AM — Dec 27 6:30 AM, Kaliningrad, Weather by CustomWeather, © 2014

Note: Actual official high and low records may vary slightly from our data, if they occured in-between our weather recording intervals... More about our weather records

Advertising

Kaliningrad weather history for previous 24 hours

 ConditionsComfort  
Time TempWeatherWind HumidityBarometerVisibility
6:30 AM
Dec 27
21 °FPartly cloudy.8 mph86%30.09 "Hg4 mi
6:00 AM21 °FSnow flurries. Partly cloudy.8 mph93%30.09 "Hg4 mi
5:00 AM21 °FPassing clouds.6 mph86%30.12 "HgN/A
4:00 AM21 °FPassing clouds.6 mph80%30.12 "HgN/A
3:00 AM21 °FPassing clouds.6 mph86%30.15 "HgN/A
1:00 AM23 °FPassing clouds.8 mph86%30.18 "HgN/A
12:00 AM21 °FPassing clouds.6 mph86%30.18 "HgN/A
11:30 PM
Dec 26
21 °FPassing clouds.3 mph86%30.18 "HgN/A
11:00 PM23 °FPassing clouds.6 mph80%30.18 "HgN/A
10:00 PM23 °FPassing clouds.6 mph86%30.21 "HgN/A
9:00 PM23 °FPassing clouds.3 mph80%30.21 "HgN/A
8:00 PM21 °FPassing clouds.3 mph80%30.24 "HgN/A
7:00 PM21 °FClear.3 mph86%30.24 "Hg10 mi
6:00 PM23 °FSunny.3 mph80%30.24 "Hg10 mi
5:00 PM23 °FSunny.6 mph80%30.24 "Hg10 mi
4:00 PM25 °FSunny.6 mph80%30.24 "Hg10 mi
3:00 PM28 °FSunny.3 mph69%30.24 "Hg10 mi
2:00 PM28 °FSunny.3 mph74%30.24 "Hg10 mi
1:00 PM28 °FSunny.3 mph74%30.24 "Hg10 mi
12:00 PM28 °FSunny.3 mph74%30.27 "Hg10 mi
11:00 AM23 °FClear.1 mph86%30.27 "Hg10 mi
10:30 AM21 °FClear.1 mph86%30.27 "Hg10 mi
10:00 AM18 °FClear.1 mph86%30.24 "Hg10 mi
9:00 AM16 °FClear.1 mph86%30.24 "Hg10 mi
8:00 AM16 °FClear.1 mph86%30.21 "Hg10 mi
7:30 AM18 °FClear.1 mph86%30.21 "Hg10 mi
7:00 AM18 °FClear.1 mph93%30.21 "Hg10 mi
Weather by CustomWeather, © 2014

See weather overviewHow to use our weather pages